Flag for Mongolia Weather past 2 weeks in Ulaanbaatar, Mongolia

Now
77 °F

Scattered clouds.


Feels Like: 77 °F
Forecast: 60 / 70 °F
Wind: 10 mph from Southwest

Location: Ulan-Bator

Current Time: Sep 3, 2015 at 6:25:34 PM

Latest Report: Sep 3, 2015 at 6:00 PM


Visibility: N/A

Pressure: 29.98 "Hg (25.84 "Hg at 1298m altitude)

Humidity: 26%

Dew point: 39 °F

Location of UlaanbaatarLocation

Historic Weather in Ulaanbaatar — Graph

°F

Ulaanbaatar temperature yesterday

Maximum temperature yesterday: 81 °F (at 5:00 PM)
Minimum temperature yesterday: 45 °F (at 5:30 AM)
Average temperature yesterday: 63 °F

Past Weeks' High & Low Weather Summary

 TemperatureHumidityPressure
High86 °F (Aug 23, 5:00 PM)94% (Aug 20, 8:30 AM)30.27 "Hg (Aug 20, 8:30 AM)
Low41 °F (Aug 21, 6:00 AM)13% (Aug 23, 5:00 PM)29.86 "Hg (Aug 22, 5:00 PM)
Average66 °F51%30.08 "Hg
* Reported Aug 19 5:00 PM — Sep 3 5:00 PM, Ulaanbaatar, Weather by CustomWeather, © 2015

Note: Actual official high and low records may vary slightly from our data, if they occured in-between our weather recording intervals... More about our weather records

Advertising

Ulaanbaatar weather history for previous 24 hours

 ConditionsComfort  
Time TempWeatherWind HumidityBarometerVisibility
5:00 PM
Thu, Sep 3
75 °FScattered clouds.10 mph24%29.98 "HgN/A
4:30 PM72 °FSprinkles. Scattered clouds.26 mph38%30.01 "HgN/A
4:00 PM72 °FThunderstorms. Scattered clouds.22 mph41%30.01 "HgN/A
3:30 PM77 °FThunderstorms. Scattered clouds.13 mph28%30.01 "HgN/A
3:00 PM77 °FScattered clouds.3 mph28%30.01 "HgN/A
2:30 PM77 °FScattered clouds.6 mph30%30.01 "HgN/A
2:00 PM79 °FPartly sunny.6 mph30%30.04 "HgN/A
1:30 PM79 °FPartly sunny.3 mph28%30.04 "HgN/A
12:30 PM73 °FPartly sunny.6 mph41%30.07 "HgN/A
12:00 PM72 °FPartly sunny.6 mph44%30.07 "HgN/A
11:30 AM70 °FPartly sunny.6 mph50%30.09 "HgN/A
11:00 AM68 °FPartly sunny.1 mph53%30.09 "HgN/A
10:30 AM66 °FPartly sunny.3 mph56%30.09 "HgN/A
10:00 AM64 °FPartly sunny.3 mph64%30.09 "HgN/A
9:30 AM63 °FPartly sunny.1 mph64%30.09 "HgN/A
9:00 AM61 °FScattered clouds.6 mph68%30.12 "HgN/A
8:30 AM59 °FScattered clouds.8 mph72%30.09 "HgN/A
8:00 AM59 °FPassing clouds.10 mph72%30.09 "HgN/A
6:30 AM59 °FPassing clouds.6 mph72%30.09 "HgN/A
6:00 AM59 °FPassing clouds.6 mph72%30.09 "HgN/A
5:30 AM61 °FPassing clouds.6 mph68%30.09 "HgN/A
5:00 AM63 °FPassing clouds.13 mph64%30.09 "HgN/A
4:00 AM64 °FPassing clouds.8 mph60%30.12 "HgN/A
3:00 AM63 °FPassing clouds.15 mph64%30.12 "HgN/A
2:00 AM63 °FPassing clouds.13 mph64%30.15 "HgN/A
1:30 AM63 °FPassing clouds.13 mph68%30.12 "HgN/A
1:00 AM64 °FPassing clouds.3 mph64%30.12 "HgN/A
12:30 AM68 °FPassing clouds.1 mph49%30.12 "HgN/A
12:00 AM64 °FPassing clouds.3 mph56%30.12 "HgN/A
11:30 PM
Wed, Sep 2
64 °FThunderstorms. Passing clouds.6 mph60%30.12 "HgN/A
11:00 PM66 °FThunderstorms. Passing clouds.6 mph56%30.12 "HgN/A
10:30 PM72 °FPassing clouds.10 mph33%30.09 "HgN/A
10:00 PM72 °FPassing clouds.10 mph36%30.09 "HgN/A
9:30 PM72 °FScattered clouds.10 mph33%30.09 "HgN/A
9:00 PM73 °FScattered clouds.3 mph31%30.09 "HgN/A
8:30 PM75 °FScattered clouds.6 mph29%30.09 "HgN/A
8:00 PM75 °FScattered clouds.3 mph27%30.09 "HgN/A
7:30 PM77 °FPartly sunny.3 mph26%30.09 "HgN/A
7:00 PM79 °FPartly sunny.3 mph24%30.09 "HgN/A
6:30 PM81 °FPartly sunny.6 mph24%30.09 "HgN/A
6:00 PM79 °FPartly sunny.3 mph26%30.09 "HgN/A
Weather by CustomWeather, © 2015

See weather overviewHow to use our weather pages